Tracking 35055 objects as of 18-Aug-2026
HD Live streaming from Space Station
objects crossing your sky now

QIANFAN-238

Track QIANFAN-238 now!
10-day predictions
QIANFAN-238 is classified as:


NORAD ID: 69867
Int'l Code: 2026-155V
Launch date: July 5, 2026
Source: People's Republic of China (PRC)
Launch site: Wenchang Satellite Launch Center (WSC)
Your satellite tracking list
Your tracking list is empty




NASA's NSSDC Master Catalog

Two Line Element Set (TLE):
1 69867U 26155V   26229.88620718 -.02022600  00000-0 -17941+1 0  9992
2 69867  89.0050  57.1574 0022250 111.6945 248.6599 13.88862776  6158
Source of the keplerian elements: AFSPC